sat.trackr.live / text

‹ back to catalog

TURKSAT 4B

NORAD 40984 · 2015-060A

PAYLOAD ACTIVE UNKNOWN

§ Identity

Operator
Country
TURK
Launch date
2015-10-16
Launch site
TYMSC
Launch vehicle
Mass (kg)
RCS (m²)

Purposes: comms

External: N2YO · Heavens-Above · Gunter

§ Orbital elements

Epoch: 2026-09-20T03:28:26.736096Z

Period
1,436.09 min
Inclination
0.0236°
Eccentricity
0.0002126
Mean motion
1.00271926 rev/d
Perigee alt
35,777.6 km
Apogee alt
35,795.5 km
Semi-major
42,164.7 km
B*
0.0000e+0
RAAN
145.7970°
Arg perigee
37.2590°
Mean anomaly
278.0813°
Rev number
4,005

§ Raw data

TURKSAT 4B1 40984U 15060A   26263.14475389  .00000000  00000+0  00000+0 0  99952 40984   0.0236 145.7970 0002126  37.2590 278.0813  1.00271926 40054

JSON: /api/v1/satellites/40984 · /tle

For live sub-satellite position, see the globe view (requires WebGL).

§ Visibility from observer

Set your observer location to see the next 7 days of passes ≥ 10°. The values pass through the URL so the page stays shareable.

No JS? Fill the form by hand. The geolocation button needs JavaScript.